Voltar ao catálogo

OPS 4682 DEB

AtivoPO
NORAD 19511·DEBRIS·🇺🇸 United States

Lançado Apr 3, 1965 de Vandenberg Space Force Base

Loading…

Próximas Passagens (próximas 24 horas)

TLE

AtualizadoSource: Space-Track

Época: Sep 14, 2026, 11:25 UTC

1 19511U 65027AU  26257.47570787  .00000210  00000-0  69227-3 0  9996
2 19511  90.2417   0.4603 0031659 172.4218 318.7167 12.97894370813481

Acompanhe OPS 4682 DEB em tempo real com AllMySat

Download on the App Store